YAOGAN 15               
1 38354U 12029A   19257.71669205 -.00000038  00000-0  18714-4 0  9994
2 38354 100.5348  31.6481 0026053 122.6801 237.6831 13.18250791350314
CZ-4C R/B               
1 38355U 12029B   19257.57906351 -.00000056  00000-0 -15795-4 0  9992
2 38355 100.1989 111.5273 0162663  44.2601 317.1407 13.46091721358446
CZ-4C DEB               
1 38661U 12029C   19257.47257410  .00000019  00000-0  15439-3 0  9997
2 38661 100.2570 350.5916 0123960 249.4383 109.3396 13.19199974348115
CZ-4C DEB               
1 38662U 12029D   19257.50665425  .00000012  00000-0  13837-3 0  9994
2 38662 100.3508   3.0941 0130361 261.3739  97.2588 13.19042676348076
CZ-4C DEB               
1 38663U 12029E   19256.90474864 -.00000095  00000-0 -15004-3 0  9994
2 38663 100.1057 298.2008 0137821 343.6380  16.0304 13.08298786345211
CZ-4C DEB               
1 38664U 12029F   19257.34324814  .00000101  00000-0  38161-3 0  9998
2 38664 100.0324 297.6225 0136442 293.7440  64.9411 13.12058619348669